Skip Page Navigation
NASA JPL Caltech
NASA Logo - Jet Propulsion Laboratory + View the NASA Portal
+ Center for Near-Earth Object Studies
JPL Home Earth Solar System Stars & Galaxies Technology
JPL Solar System Dynamics
BODIES ORBITS EPHEMERIDES TOOLS PHYSICAL DATA DISCOVERY FAQ SITE MAP
JPL Small-Body Database Browser
Search: [ help ]  
46134 (2001 FH53)
Classification: Main-belt Asteroid          SPK-ID: 2046134
Ephemeris | Orbit Diagram | Orbital Elements | Mission Design | Physical Parameters | Discovery Circumstances | Close-Approach Data ]

[ show orbit diagram ]
Orbital Elements at Epoch 2459000.5 (2020-May-31.0) TDB
Reference: JPL 26 (heliocentric ecliptic J2000)
 Element Value Uncertainty (1-sigma)   Units 
e .03346240929575435 4.895e-08  
a 2.943909685365678 1.9847e-08 au
q 2.845399374544236 1.4501e-07 au
i 2.608839497192003 5.4058e-06 deg
node 46.90058114075366 9.8587e-05 deg
peri 172.3890226414785 0.00011867 deg
M 272.6599835196826 6.6383e-05 deg
tp 2459448.106020353520
(2021-Aug-21.60602035)
0.00034075 TDB
period 1844.952334804983
5.05
1.8657e-05
5.108e-08
d
yr
n .1951269922851709 1.9732e-09 deg/d
Q 3.042419996187119 2.0511e-08 au
  Orbit Determination Parameters
   # obs. used (total)      997  
   data-arc span      8714 days (23.86 yr)  
   first obs. used      1996-03-22  
   last obs. used      2020-01-30  
   planetary ephem.      DE431  
   SB-pert. ephem.      SB431-N16  
   condition code      0  
   norm. resid. RMS      .55647  
   source      ORB  
   producer      Otto Matic  
   solution date      2020-Feb-23 08:22:11  

Additional Information
 Earth MOID = 1.83686 au 
 Jupiter MOID = 1.91994 au 
 T_jup = 3.269 
[ hide covariance matrix ]
Orbital Elements at Epoch 2456547.5 (2013-Sep-12.0) TDB
Reference: JPL 26 (heliocentric ecliptic J2000)
 Element Value Uncertainty (1-sigma)   Units 
e .03654635869621338 4.837e-08  
q 2.834063351968657 1.4369e-07 au
tp 2455766.570102956306
(2011-Jul-24.07010296)
0.00031274 TDB
node 47.01145834330845 9.8604e-05 deg
peri 173.713152808386 0.00011605 deg
i 2.609649984934544 5.4036e-06 deg
  Orbit Determination Parameters
   # obs. used (total)      997  
   data-arc span      8714 days (23.86 yr)  
   first obs. used      1996-03-22  
   last obs. used      2020-01-30  
   planetary ephem.      DE431  
   SB-pert. ephem.      SB431-N16  
   condition code      0  
   norm. resid. RMS      .55647  
   source      ORB  
   producer      Otto Matic  
   solution date      2020-Feb-23 08:22:11  

Additional Information
 Jupiter MOID = 1.91994 au 
 T_jup = 3.269 
Orbit Covariance (6×6)
  e q tp node peri i
e 2.339615295367286E-15 -6.889334930787587E-15 -2.663150139877495E-12 -7.747293058112707E-15 -4.984817185033579E-13 -2.917352945371115E-16
q -6.889334930787587E-15 2.064603682953194E-14 7.888183410547572E-12 2.167630391431929E-14 1.505295256278849E-12 1.111672649135059E-15
tp -2.663150139877495E-12 7.888183410547572E-12 9.780712389962557E-8 2.640309121364404E-11 1.915223254639968E-8 5.480153872588794E-14
node -7.747293058112707E-15 2.167630391431929E-14 2.640309121364404E-11 9.722738863602458E-9 -9.70724905631309E-9 -1.076949890386609E-10
peri -4.984817185033579E-13 1.505295256278849E-12 1.915223254639968E-8 -9.70724905631309E-9 1.346648429207715E-8 1.076124160740813E-10
i -2.917352945371115E-16 1.111672649135059E-15 5.480153872588794E-14 -1.076949890386609E-10 1.076124160740813E-10 2.919924065409288E-11

Ephemeris | Orbit Diagram | Orbital Elements | Mission Design | Physical Parameters | Discovery Circumstances | Close-Approach Data ]

Physical Parameter Table
Parameter Symbol Value Units Sigma Reference Notes
absolute magnitude H 14.6   n/a MPO365792  

46134 (2001 FH53)          Discovered 2001-Mar-18 by LINEAR at Socorro
Reference: 20020822/Numbers.arcLast Updated: 2004-04-19

[ show close-approach data ]
Alternate Designations
 2001 FH53 = 1996 FK18 = 2000 AD161 
Ephemeris | Orbit Diagram | Orbital Elements | Mission Design | Physical Parameters | Discovery Circumstances | Close-Approach Data ]
ABOUT SSD CREDITS/AWARDS PRIVACY/COPYRIGHT GLOSSARY LINKS
FirstGov 2020-Aug-04 08:52 UT
(server date/time)  
NASA Home Page
Site Manager:   Ryan S. Park
Webmaster  Alan B. Chamberlin